Find Starlink 6350

NORAD ID: 57226 Int'l Des: 2023-094 Owner: SPXS Country: US Constellation: starlink operational
LEOCIRCULAR

リアルタイム位置

3D地球を読み込み中...

Starlink 6350について

説明を読み込み中...

次回通過

Passes for default location (London). Set your location on the main map for personalized predictions.

高度履歴

Loading altitude history...

軌道要素

1 57226U 23094J 26122.37653366 .00000654 00000-0 33290-4 0 9998
2 57226 43.0040 87.7387 0001458 265.4192 94.6493 15.27577078155322
Epoch: May 2, 2026 • Age: 10 hours

現在のステータス

高度 486.5 km
速度 7.62 km/s
衛星直下点 -18.55°S, 135.2°E
打ち上げ日 Jul 7, 2023
運用期間 2.8 years
タイプ internet

技術仕様

分類 Payload
質量 305.00 kg
乾燥質量 290.00 kg
総質量 305.00 kg
長さ 0.20 m
直径 2.80 m
スパン 9.00 m
形状 Box + pan
製造者 SPXS
バスタイプ Starlink
フェーズステータス In Orbit
所有者/国 SPXS/US

Most Searched